Погода в Белу-Оризонти

Бразилия     19˚54′52″S   43˚56′24″W
темп.,
°C
ветер,
м/с
пор.,
м/с
влажн.,
%
обл.,
%
осадки,
мм/ч
давл.,
гПа
погр.,
м
16 января, сб
сб1600:00+20˚всв277980 0.0 1015478
03:00+18˚всв238678 0.1 1014257
06:00+18˚всв249098 0.4 1015283
09:00+22˚всв246999 0.4 1016791
12:00+26˚ссв235497 0.1 10151365
15:00+27˚св445384 0.9 10121405
18:00+24˚всв4668100 0.8 1012813
21:00+21˚всв41078100 1.6 1015664
17 января, вс
вс1700:00+19˚всв4118597 0.0 1015671
03:00+18˚всв398798 0.0 1014550
06:00+18˚в3788100 0.0 1015393
09:00+22˚всв3665100 0.0 1016654
12:00+27˚св445063 0.0 10141393
15:00+27˚св445153 0.3 10121511
18:00+24˚св466448 0.3 1012929
21:00+20˚всв387774 0.3 1014490
18 января, пн
пн1800:00+19˚всв377864 0.0 1015418
03:00+18˚всв378463 0.0 1014379
06:00+17˚в248814 0.0 1015228
09:00+23˚св346013 0.0 1015752
12:00+28˚ссв33410 0.0 10141627
15:00+28˚с43390 0.0 10111885
18:00+25˚ссв235351 0.0 1011929
21:00+21˚в236450 0.0 1014430
19 января, вт
вт1900:00+19˚в25780 0.0 1015302
03:00+18˚в23810 0.0 1014198
06:00+18˚в23830 0.0 1016144
09:00+24˚св23540 0.0 1016840
12:00+28˚св34360 0.0 10152051
15:00+27˚св334231 0.0 10121937
18:00+25˚в135472 0.1 1012993
21:00+21˚всв356856 0.2 1015389
20 января, ср
ср2000:00+19˚в24725 0.0 1015266
03:00+18˚в247646 0.0 1015188
06:00+18˚в2383100 0.0 1016164
09:00+25˚всв2256100 0.0 1017778
12:00+30˚ссз123385 0.0 10152249
15:00+27˚сз224781 0.1 10121624
18:00+25˚зсз125699 0.1 1012623
21:00+22˚в247297 0.4 1015401